| time (UTC) | temp C | wind direction | speed KPH | gust KPH | rain 1hr cm | rain 24hr cm | rain mn cm | humidity % | barometer mb |
| 20260504005902 | 22 | 55 | 4.8 | 16.1 | 0.00 | 0.30 | 0.30 | 75 | 1016.4 |
| 20260504004901 | 22 | 54 | 6.4 | 14.5 | 0.00 | 0.30 | 0.30 | 74 | 1016.2 |
| 20260504003902 | 22 | 63 | 4.8 | 17.7 | 0.00 | 0.30 | 0.30 | 73 | 1016.1 |
| 20260504002848 | 22 | 65 | 4.8 | 9.7 | 0.00 | 0.30 | 0.30 | 73 | 1016.1 |
| 20260504001848 | 22 | 36 | 6.4 | 12.9 | 0.00 | 0.30 | 0.30 | 72 | 1016.1 |
| 20260504000846 | 22 | 56 | 6.4 | 14.5 | 0.00 | 0.30 | 0.30 | 71 | 1015.9 |
| 20260503235847 | 22 | 66 | 6.4 | 12.9 | 0.00 | 0.30 | 0.30 | 71 | 1015.8 |
| 20260503234854 | 23 | 81 | 4.8 | 12.9 | 0.00 | 0.30 | 0.30 | 70 | 1015.7 |
| 20260503233848 | 23 | 55 | 6.4 | 16.1 | 0.00 | 0.30 | 0.30 | 71 | 1015.8 |
| 20260503233322 | 23 | 56 | 6.4 | 14.5 | 0.00 | 0.30 | 0.30 | 70 | 1015.7 |
| 20260503232339 | 23 | 58 | 6.4 | 17.7 | 0.00 | 0.30 | 0.30 | 70 | 1015.7 |
| 20260503230846 | 23 | 59 | 8.0 | 16.1 | 0.00 | 0.33 | 0.30 | 69 | 1015.6 |
| 20260503225847 | 23 | 70 | 6.4 | 19.3 | 0.00 | 0.33 | 0.30 | 68 | 1015.6 |
| 20260503224845 | 24 | 50 | 6.4 | 14.5 | 0.00 | 0.33 | 0.30 | 68 | 1015.7 |
| 20260503223845 | 24 | 10 | 8.0 | 19.3 | 0.00 | 0.33 | 0.30 | 69 | 1015.6 |
| 20260503222846 | 24 | 50 | 4.8 | 14.5 | 0.00 | 0.33 | 0.30 | 68 | 1015.5 |
| 20260503221844 | 24 | 76 | 6.4 | 16.1 | 0.00 | 0.33 | 0.30 | 68 | 1015.5 |
| 20260503220846 | 24 | 20 | 6.4 | 17.7 | 0.00 | 0.33 | 0.30 | 69 | 1015.6 |
| 20260503215844 | 24 | 34 | 6.4 | 14.5 | 0.00 | 0.36 | 0.30 | 69 | 1015.5 |
| 20260503215412 | 24 | 70 | 6.4 | 16.1 | 0.00 | 0.36 | 0.30 | 69 | 1015.5 |
| 20260503215258 | 24 | 94 | 6.4 | 17.7 | 0.00 | 0.41 | 0.30 | 68 | 1015.3 |
| 20260503215107 | 24 | 79 | 6.4 | 22.5 | 0.00 | 0.41 | 0.30 | 67 | 1015.3 |
| 20260503205845 | 25 | 84 | 8.0 | 19.3 | 0.00 | 0.43 | 0.30 | 66 | 1015.4 |
| 20260503204846 | 25 | 22 | 9.7 | 20.9 | 0.00 | 0.43 | 0.30 | 65 | 1015.5 |
| 20260503203845 | 25 | 54 | 8.0 | 20.9 | 0.00 | 0.43 | 0.30 | 65 | 1015.6 |
| 20260503203315 | 26 | 78 | 8.0 | 17.7 | 0.00 | 0.43 | 0.30 | 62 | 1015.5 |
| 20260503201840 | 26 | 38 | 8.0 | 16.1 | 0.00 | 0.46 | 0.30 | 65 | 1015.5 |
| 20260503200838 | 26 | 82 | 8.0 | 19.3 | 0.00 | 0.46 | 0.30 | 65 | 1015.7 |
| 20260503195839 | 27 | 88 | 8.0 | 19.3 | 0.00 | 0.46 | 0.30 | 60 | 1015.8 |
| 20260503194839 | 26 | 327 | 9.7 | 20.9 | 0.00 | 0.46 | 0.30 | 63 | 1015.8 |
| 20260503194753 | 26 | 10 | 8.0 | 19.3 | 0.00 | 0.46 | 0.30 | 64 | 1016.1 |
| 20260503192834 | 26 | 92 | 6.4 | 17.7 | 0.00 | 0.46 | 0.30 | 63 | 1016.2 |
| 20260503191832 | 27 | 100 | 9.7 | 17.7 | 0.00 | 0.46 | 0.30 | 62 | 1016.3 |
| 20260503190834 | 27 | 356 | 8.0 | 17.7 | 0.00 | 0.46 | 0.30 | 61 | 1016.6 |
| 20260503185835 | 26 | 57 | 8.0 | 22.5 | 0.00 | 0.46 | 0.30 | 66 | 1016.8 |
| 20260503184819 | 26 | 91 | 11.3 | 24.1 | 0.00 | 0.46 | 0.30 | 66 | 1016.9 |
| 20260503183819 | 26 | 5 | 9.7 | 19.3 | 0.00 | 0.46 | 0.30 | 66 | 1017.0 |
| 20260503182818 | 26 | 15 | 9.7 | 20.9 | 0.00 | 0.46 | 0.30 | 70 | 1017.1 |
| 20260503182307 | 25 | 5 | 9.7 | 20.9 | 0.00 | 0.46 | 0.30 | 69 | 1017.2 |
| 20260503180820 | 25 | 42 | 8.0 | 19.3 | 0.00 | 0.46 | 0.30 | 69 | 1017.4 |
| 20260503175813 | 25 | 65 | 8.0 | 19.3 | 0.00 | 0.46 | 0.30 | 69 | 1017.5 |
| 20260503174812 | 24 | 96 | 8.0 | 16.1 | 0.00 | 0.46 | 0.30 | 72 | 1017.7 |
| 20260503174253 | 23 | 31 | 9.7 | 20.9 | 0.00 | 0.46 | 0.30 | 73 | 1017.7 |
| 20260503172814 | 23 | 5 | 8.0 | 16.1 | 0.00 | 0.46 | 0.30 | 74 | 1017.8 |
| 20260503171759 | 23 | 19 | 9.7 | 22.5 | 0.00 | 0.46 | 0.30 | 73 | 1017.8 |
| 20260503170756 | 23 | 15 | 9.7 | 20.9 | 0.00 | 0.46 | 0.30 | 74 | 1017.6 |
| 20260503150725 | 20 | 52 | 4.8 | 16.1 | 0.00 | 0.46 | 0.30 | 86 | 1018.3 |
| 20260503130653 | 18 | 46 | 9.7 | 22.5 | 0.00 | 0.46 | 0.30 | 91 | 1016.9 |
| 20260503110634 | 18 | 20 | 8.0 | 17.7 | 0.00 | 0.46 | 0.30 | 95 | 1015.6 |
| 20260503081601 | 18 | 5 | 9.7 | 22.5 | 0.03 | 0.41 | 0.25 | 95 | 1014.7 |
| 20260503080602 | 18 | 31 | 9.7 | 17.7 | 0.03 | 0.41 | 0.25 | 95 | 1014.7 |
| 20260503072601 | 19 | 54 | 8.0 | 19.3 | 0.05 | 0.38 | 0.23 | 95 | 1014.2 |
| 20260503071600 | 19 | 83 | 8.0 | 17.7 | 0.08 | 0.38 | 0.23 | 95 | 1014.4 |
| 20260503070601 | 20 | 19 | 8.0 | 16.1 | 0.08 | 0.38 | 0.23 | 95 | 1014.6 |
| 20260503054600 | 21 | 259 | 1.6 | 4.8 | 0.05 | 0.30 | 0.15 | 95 | 1014.2 |
| 20260503053550 | 21 | 260 | 3.2 | 11.3 | 0.05 | 0.28 | 0.13 | 95 | 1014.4 |
| 20260503052550 | 21 | 219 | 6.4 | 11.3 | 0.08 | 0.28 | 0.13 | 95 | 1014.6 |
| 20260503051548 | 21 | 254 | 4.8 | 8.0 | 0.13 | 0.28 | 0.13 | 95 | 1014.6 |
| 20260503050551 | 21 | 242 | 3.2 | 11.3 | 0.10 | 0.25 | 0.10 | 95 | 1014.8 |
| 20260503050021 | 21 | 232 | 3.2 | 8.0 | 0.10 | 0.25 | 0.10 | 94 | 1014.8 |
| 20260503044543 | 21 | 254 | 3.2 | 12.9 | 0.10 | 0.25 | 0.10 | 94 | 1014.8 |
| 20260503043543 | 21 | 283 | 4.8 | 12.9 | 0.08 | 0.23 | 0.08 | 93 | 1014.7 |
| 20260503042544 | 21 | 269 | 3.2 | 14.5 | 0.05 | 0.20 | 0.05 | 93 | 1014.5 |
| 20260503041543 | 21 | 286 | 4.8 | 11.3 | 0.00 | 0.15 | 0.00 | 92 | 1014.5 |
| 20260503040532 | 22 | 247 | 0.0 | 4.8 | 0.00 | 0.15 | 0.00 | 91 | 1014.1 |
| 20260503035533 | 22 | 248 | 0.0 | 1.6 | 0.00 | 0.15 | 0.15 | 90 | 1013.7 |
| 20260503035021 | 22 | 247 | 3.2 | 6.4 | 0.00 | 0.15 | 0.15 | 89 | 1013.6 |
| 20260503033531 | 22 | 248 | 3.2 | 8.0 | 0.00 | 0.15 | 0.15 | 89 | 1013.5 |
| 20260503032532 | 22 | 266 | 4.8 | 11.3 | 0.00 | 0.15 | 0.15 | 89 | 1013.4 |
| 20260503031529 | 22 | 255 | 6.4 | 14.5 | 0.00 | 0.15 | 0.15 | 89 | 1013.4 |
| 20260503030528 | 22 | 243 | 4.8 | 12.9 | 0.00 | 0.15 | 0.15 | 90 | 1013.3 |
| 20260503030018 | 22 | 262 | 6.4 | 11.3 | 0.00 | 0.15 | 0.15 | 90 | 1013.1 |
| 20260503024523 | 22 | 264 | 4.8 | 11.3 | 0.00 | 0.15 | 0.15 | 91 | 1013.2 |
| 20260503023523 | 22 | 267 | 3.2 | 6.4 | 0.00 | 0.15 | 0.15 | 91 | 1012.9 |
| 20260503022522 | 22 | 267 | 3.2 | 6.4 | 0.00 | 0.15 | 0.15 | 92 | 1012.6 |
| 20260503021525 | 22 | 273 | 3.2 | 9.7 | 0.00 | 0.15 | 0.15 | 92 | 1012.5 |
| 20260503020524 | 22 | 278 | 3.2 | 11.3 | 0.00 | 0.15 | 0.15 | 93 | 1012.5 |
| 20260503015516 | 22 | 279 | 3.2 | 9.7 | 0.00 | 0.15 | 0.15 | 93 | 1012.4 |
| 20260503014517 | 21 | 242 | 1.6 | 6.4 | 0.00 | 0.15 | 0.15 | 94 | 1012.2 |
| 20260503013514 | 21 | 239 | 1.6 | 4.8 | 0.00 | 0.15 | 0.15 | 94 | 1012.0 |
| 20260503012513 | 21 | 239 | 1.6 | 8.0 | 0.00 | 0.15 | 0.15 | 94 | 1011.9 |
| 20260503011518 | 21 | 237 | 3.2 | 8.0 | 0.00 | 0.15 | 0.15 | 94 | 1012.1 |
| 20260503010952 | 21 | 215 | 3.2 | 8.0 | 0.00 | 0.15 | 0.15 | 93 | 1011.9 |